www.pogodaiklimat.ru

Погода и климат >> Архив погоды >> Индия >> Churu


ПОГОДА в Churu

  • Прогноз погоды в Churu
  • Монитор погоды в Churu
  • Климат города

АРХИВ ПОГОДЫ в Churu

Время (UTC), дата Ветер
(напр.,м/с)
 
Видим.   Явления Облачность Т
(С)
Тd
(С)
f
(%)
Тe
(С)
Тes
(С)
Комфортность P
(гПа)
Po
(гПа)
Тmin
(С)
Tmax
(С)
R
(мм)
R24
(мм)
S
(см)
06 19.06 З 3 2000 м мгла ясно +38.0 +20.6 37 +44 +62 опасность
перегрева
997.2 997.0
09 19.06 ЮЗ 2 2000 м мгла 1/1 1200 м
[Sc]
+41.8 +20.8 30 +48 +63 опасность
перегрева
994.5 995.0
12 19.06 З 2 2000 м мгла 5/5 1200 м
[Sc]
+41.4 +17.4 25 +44 +46 опасность
перегрева
992.8 993.0 +42.7
15 19.06 ЮЗ 1 4000 м 1/1 1200 м
[Sc]
+38.0 +19.1 33 +42 +42 опасность
перегрева
994.6 995.0
18 19.06 СВ 2 1000 м пыльный позёмок 5/5 1200 м
[Sc]
+29.6 +22.2 64 +38 +38 очень
душно
997.3 997.0
21 19.06 В 2 4000 м 6/6 1000 м
[Sc]
+29.4 +22.0 64 +38 +38 очень
душно
997.0 997.0
00 20.06 штиль 0 4000 м 9/9 1200 м
[Sc]
+29.4 +23.0 68 +39 +39 очень
душно
997.5 998.0
03 20.06 С 3 2000 м мгла 6/6 1200 м
[Sc]
+29.4 +22.0 64 +38 +41 очень
душно
1000.3 1000.0 +28.1 +42.7
06 20.06 Ю 2 4000 м мгла 3/3 1200 м
[Sc]
+34.0 +21.3 48 +42 +56 опасность
перегрева
1000.1 1000.0
09 20.06 З 2 4000 м мгла 6/6 1200 м
[Sc]
+39.6 +21.3 35 +46 +54 опасность
перегрева
997.3 997.0
12 20.06 З 2 2000 м мгла 6/6 1200 м
[Sc]
+40.0 +21.1 34 +47 +48 опасность
перегрева
994.0 994.0 +40.5
15 20.06 З 2 2000 м мгла 4/4 1200 м
[Sc]
+36.2 +19.8 38 +42 +42 опасность
перегрева
995.0 995.0
18 20.06 СЗ 10 <50 м пыльная буря {метель} ?/? +27.8 +19.2 60 +33 +33 очень
душно
998.7 999.0
00 21.06 В 2 4000 м {гроза, дождь} 8/4 1200 м
[Sc Ac trans]
+21.6 +21.3 98 +28 +28 очень
душно
997.2 997.0 9
03 21.06 З 1 4000 м 5/5 1200 м
[Sc]
+26.2 +22.0 78 +34 +38 очень
душно
1000.5 1001.0 +21.2 +40.5 9
06 21.06 З 1 4000 м 3/1 1200 м
[Sc Ac trans]
+29.2 +22.1 66 +38 +57 опасность
солнечного
удара
1001.0 1001.0
09 21.06 ЮЗ 2 4000 м ясно +33.0 +21.2 50 +41 +60 опасность
перегрева
999.6 1000.0
12 21.06 З 2 4000 м 3/3 1200 м
[Sc]
+35.0 +20.8 44 +42 +45 опасность
перегрева
997.4 997.0 +35.2
15 21.06 штиль 0 4000 м 4/4 1200 м
[Sc]
+32.0 +20.6 51 +39 +39 очень
душно
998.6 999.0
18 21.06 С 1 4000 м 3/3 1200 м
[Sc]
+31.4 +17.3 43 +35 +35 очень
душно
999.6 1000.0
21 21.06 штиль 0 4000 м 3/3 1200 м
[Sc]
+29.6 +18.4 51 +34 +34 очень
душно
998.5 999.0
00 22.06 штиль 0 2000 м гроза, ливневой дождь 8/8 900 м
[Cb calv]
+27.6 +22.9 76 +37 +37 очень
душно
998.3 998.0 0.6
03 22.06 штиль 0 2000 м гроза, ливневой дождь 9/9 1050 м
[Cb calv]
+24.4 +23.8 96 +33 +34 очень
душно
1001.7 1002.0 +24.4 +35.2 5
06 22.06 ЮЗ 1 4000 м {гроза, дождь} 9/5 1200 м
[Sc Ac trans]
+30.2 +20.9 58 +38 +44 очень
душно
1001.6 1002.0 0.2
09 22.06 СЗ 1 4000 м 4/1 1200 м
[Sc Ac trans]
+32.8 +20.9 50 +40 +55 опасность
солнечного
удара
999.6 1000.0 0.2
12 22.06 СЗ 2 4000 м ясно +33.2 +21.2 49 +41 +44 опасность
перегрева
999.4 999.0 +34.5 0.2
15 22.06 СЗ 1 4000 м зарница 9/9 900 м
[Cb calv]
+29.0 +20.6 61 +36 +36 очень
душно
1000.7 1001.0
18 22.06 Ю 2 4000 м 9/9 1050 м
[Sc]
+27.6 +21.6 70 +35 +35 очень
душно
1001.0 1001.0 0.2
21 22.06 ЮЗ 1 4000 м 9/9 1050 м
[Sc]
+26.0 +21.5 76 +33 +33 очень
душно
1001.1 1001.0 0.2
00 23.06 штиль 0 4000 м 9/6 1200 м
[Sc Ac trans]
+25.8 +21.6 78 +33 +33 очень
душно
1000.7 1001.0 0.2
03 23.06 В 1 4000 м 8/5 1050 м
[Cu Sc Ac trans]
+30.8 +22.0 59 +39 +42 очень
душно
1001.4 1001.0 +25.0 +34.5 0.2
06 23.06 В 1 4000 м 8/5 1050 м
[Cu Sc Ac trans]
+36.2 +19.5 38 +42 +49 опасность
перегрева
1000.8 1001.0
09 23.06 ЮЗ 1 4000 м 5/5 1200 м
[Cu hum]
+38.6 +20.7 36 +45 +56 опасность
перегрева
998.3 998.0
12 23.06 ЮЗ 2 4000 м {гроза, дождь} 6/6 1200 м
[Sc]
+33.2 +22.1 52 +42 +43 опасность
перегрева
998.0 998.0 +39.1 0.0
15 23.06 штиль 0 4000 м 3/3 1200 м
[Sc]
+30.4 +23.1 65 +41 +41 опасность
перегрева
998.1 998.0 0.0
18 23.06 штиль 0 4000 м 3/3 1200 м
[Sc]
+29.6 +23.8 71 +41 -16 опасность
перегрева
998.9 999.0 0.0
21 23.06 штиль 0 4000 м ясно +28.6 +24.0 76 +40 +40 очень
душно
998.3 998.0 0.0
00 24.06 ЮЗ 1 4000 м ясно +28.0 +24.3 80 +39 +39 очень
душно
998.3 998.0 0.0
03 24.06 штиль 0 4000 м ясно +32.0 +24.0 63 +44 +54 опасность
перегрева
998.4 998.0 +27.1 +39.1 0.0
06 24.06 Ю 1 4000 м 4/4 1200 м
[Cu hum]
+37.0 +27.4 58 +56 +71 опасность
перегрева
998.0 998.0
09 24.06 ЮВ 1 4000 м 6/6 1200 м
[Sc]
+41.0 +21.3 32 +47 +56 опасность
перегрева
995.5 996.0
12 24.06 ЮЗ 2 4000 м 6/6 1200 м
[Sc]
+40.0 +19.9 31 +45 +46 опасность
перегрева
993.2 993.0 +41.5
15 24.06 штиль 0 4000 м 8/8 1050 м
[Cu Sc]
+36.6 +21.4 41 +44 +44 опасность
перегрева
994.2 994.0
18 24.06 штиль 0 4000 м 3/3 1200 м
[Sc]
+33.0 +22.9 55 +43 +43 опасность
перегрева
996.4 996.0
21 24.06 штиль 0 4000 м ясно +31.4 +23.0 61 +42 +42 опасность
перегрева
997.0 997.0
00 25.06 штиль 0 4000 м 3/3 1200 м
[Sc]
+30.4 +24.1 69 +42 +42 опасность
перегрева
997.2 997.0
03 25.06 штиль 0 4000 м ясно +34.0 +25.6 62 +49 +60 опасность
перегрева
997.7 998.0 +29.6 +41.5
06 25.06 штиль 0 4000 м 5/5 1200 м
[Cu hum]
+39.4 +26.6 49 +56 +70 опасность
перегрева
996.6 997.0
09 25.06 Ю 2 4000 м гроза без осадков 8/8 1050 м
[Cb calv]
+42.2 +21.0 30 +48 +52 опасность
перегрева
994.6 995.0
12 25.06 ЮВ 1 2000 м в посл. час гроза 5/5 1050 м
[Cu Sc]
+39.4 +22.1 37 +47 +49 опасность
перегрева
992.7 993.0 +43.0
15 25.06 штиль 0 4000 м 3/3 1200 м
[Sc]
+38.0 +22.1 40 +46 +46 опасность
перегрева
994.9 995.0
18 25.06 штиль 0 4000 м 3/3 1200 м
[Sc]
+35.4 +23.4 50 +46 +46 опасность
перегрева
996.9 997.0
21 25.06 штиль 0 4000 м 3/3 1200 м
[Sc]
+34.4 +23.8 54 +46 +46 опасность
перегрева
996.8 997.0
00 26.06 штиль 0 4000 м 5/5 1200 м
[Sc]
+32.0 +24.0 63 +44 +44 опасность
перегрева
997.6 998.0

 

Местоположение метеостанции Churu (Rajasthan, Индия): широта 28.25 долгота 74.92 высота над уровнем моря 291 м.

В архиве по умолчанию представлена погода в Churu за последнюю неделю. Архивные данные за месяц целиком и за предыдущие месяцы, начиная с января 2011 года, Вы можете получить, выбрав интересующий диапазон дат из раскрывающегося списка и нажав кнопку "Ввод!".

Внимание! Время в таблицах - всемирное. Для получения местного времени необходимо прибавить поправку, которая в Churu равна 5.5 ч.

Смотрите также архив погоды в соседних городах и на ближайших метеорологических станциях:

Погода в Pilani (Rajasthan, Индия) (65 км)
Погода в Hissar (Haryana, Индия) (129 км)
Погода в Bikaner (Rajasthan, Индия) (161 км)
Погода в Jaipur (Rajasthan, Индия) (181 км)
Погода в Ajmer (Rajasthan, Индия) (202 км)
Погода в Sri Ganganagar (Rajasthan, Индия) (212 км)
Погода в New Delhi Aya Nagar (Delhi, Индия) (218 км)
Погода в New Delhi Airport (Delhi, Индия) (218 км)
Погода в New Delhi (Delhi, Индия) (226 км)
Погода в Ridge (Delhi, Индия) (235 км)

Пояснения к столбцам:

Ветер - указаны скорость ветра в м/с - средняя за 10 мин, порывы в срок и между сроками (в фигурных скобках) и направление, откуда дует ветер: С - северный, СВ - северо-восточный, В - восточный, ЮВ - юго-восточный, Ю - южный, ЮЗ - юго-западный, З - западный, СЗ - северо-западный.
Видимость - горизонтальная дальность видимости в метрах или километрах. При видимости от 1 до 10 км при отсутствии осадков обычно наблюдается дымка, при ухудшении видимости до 1 км и менее - туман. В сухую погоду видимость может ухудшаться дымом, пылью или мглою.
Явления - указаны атмосферные явления, наблюдавшиеся в срок или в последний час перед сроком; фигурными скобками обозначены явления, наблюдавшиеся между сроками (за 1-3 часа до срока); квадратными скобками обозначены град или гололедные отложения с указанием их диаметра в мм.
Облачность - указаны через наклонную черту общая и нижняя облачность в баллах и высота нижней границы облаков в метрах; квадратными скобками обозначены формы облаков: Ci - перистые, Cs - перисто-слоистые, Cc - перисто-кучевые, Ac - высококучевые, As - высокослоистые, Sc - слоисто-кучевые, Ns - слоисто-дождевые, Cu - кучевые, Cb - кучево-дождевые. Подробнее классификацию облаков см. в Атласе облаков (PDF).
T - Температура воздуха - температура, измеренная на высоте 2 м над землей.
Td - Температура точки росы - температура, при понижении до которой содержащийся в воздухе водяной пар достигнет насыщения.
f - Относительная влажность воздуха - влажноcть воздуха, измеренная на высоте 2 м над землей.
Te - Эффективная температура - температура, которую ощущает одетый по сезону человек в тени. Характеристика душности погоды. При расчете учитывается влияние влажности воздуха и скорости ветра на теплоощущения человека.
Tes - Эффективная температура на солнце - температура, которую ощущает человек, с поправкой на солнечный нагрев. Характеристика знойности погоды. Зависит от высоты солнца над горизонтом, облачности и скорости ветра. Ночью, в пасмурную погоду, а также при ветре 12 м/с и более поправка равна нулю.
P - Атмосферное давление - приведенное к уровню моря атмосферное давление.
Po - Атмосферное давление - измеренное на уровне метеостанции атмосферное давление.
Tmin - Минимальная температура - минимум температуры воздуха на высоте 2 м над землей.
Tmax - Максимальная температура - максимум температуры воздуха на высоте 2 м над землей.
R - Количество осадков - Количество выпавших осадков за период времени, мм. При наведении курсора мыши на число - период времени, за который выпало указанное количество осадков.
R24 - Количество осадков - Количество выпавших осадков за 24 часа, мм.
S - Снежный покров - Высота снежного покрова, см. При наведении курсора мыши на число - состояние снежного покрова и степень покрытия местности в баллах.